星链-1806 (STARLINK-1806 )

导读

STARLINK-1806(星链-1806)是美国太空探索技术公司SpaceX星链卫星互联网项目的一员,于2021年2月4日发射。作为星链低轨卫星星座部署批次中的卫星,它依托近地轨道部署,为全球范围提供高速互联网接入服务,推进星链星座全球覆盖组网进程。

基本信息
目录编号:
47549
目录名称:
STARLINK-1806
国际标识:
2021-009B
轨道中心:
EARTH
卫星名称:
星链-1806
卫星全名:
星链-1806 (STARLINK-1806 )
卫星状态:
已陨落 最后检测时间 2025-05-20
发射日期:
2021-02-04 UTC
国别 :
美国 (US)
星等 :
--
轨道信息
数据来源 国际轨道数据
星历时间: 2025-05-20T12:13:35+0800
轨道信息已过期394天
半长轴: 6543.254km
偏心率: 0.0009553
轨道倾角: 53.030°
近地点辐角 308.380°
升交点赤经 208.459°
平近点角 101.053°
近地点: 158.868km
远地点: 171.37km
周期: 87.791分钟
每日圈数: 16.402578
详细信息
固有亮度:
5
最大亮度:
2.5
卫星平台:
Starlink V1.0
覆盖范围:
全球
运营商:
太空探索技术公司
运营商所在国:
美国
制造商(研发单位):
太空探索技术公司
制造商所在国:
美国
使用方式:
暂无
卫星简介
星链(Starlink)计划是由太空探索技术公司(SpaceX)提出的一个巨型低轨卫星互联网星座项目,计划在2019年至2024年间在太空搭建由约1.2万颗卫星组成的“星链”网络,其中1584颗将部署在地球上空550千米处的近地轨道,并从2020年开始工作。该卫星仍在工作。